Weather History for TGPY - December, 2013

Change the Weather History Date:

Wednesday, December 11, 2013

  Actual Average Record
Temperature  
Mean Temperature 81 °F -  
Max Temperature 86 °F 83 °F 89 °F (2012)
Min Temperature 76 °F 74 °F 71 °F (2008)
Cooling Degree Days 16    
Growing Degree Days 31 (Base 50)    
Moisture  
Dew Point 73 °F    
Average Humidity 74    
Maximum Humidity 83    
Minimum Humidity 59    
Precipitation  
Precipitation 0.01 in - - ()
Sea Level Pressure  
Sea Level Pressure 29.96 in    
Wind  
Wind Speed 13 mph ()    
Max Wind Speed 21 mph    
Max Gust Speed 32 mph    
Visibility 7.2 miles    
Events Rain    
Averages and records for this station are not official NWS values.
T = Trace of Precipitation, MM = Missing Value Source: Averaged Metar Reports

Daily Weather History Graph

Daily Weather History Graph

Search for Another Location

Airport or City:

Trip Planner

Search our weather history database for the weather conditions in past years. The results will help you decide how hot, cold, wet, or windy it might be!

Date:

Astronomy

Dec. 11, 2013 Rise Set
Actual Time 6:17 AM AST 5:43 PM AST
Civil Twilight 5:54 AM AST 6:06 PM AST
Nautical Twilight 5:28 AM AST 6:33 PM AST
Astronomical Twilight 5:01 AM AST 6:59 PM AST
Moon 1:33 PM AST (12/11) 1:20 AM AST (12/11)
Length of Visible Light 12h 12m
Length of Day
11h 26m
Waxing Gibbous, 71% of the Moon is Illuminated
Dec 11
Waxing Gibbous
Dec 17
Full
Dec 25
Last Quarter
Jan 1
New
Jan 7
First Quarter

Hourly Weather History & Observations

Time (AST) Temp. Heat Index Dew Point Humidity Pressure Visibility Wind Dir Wind Speed Gust Speed Precip Events Conditions
12:00 AM 78.8 °F - 71.6 °F 78% 29.95 in 6.2 mi East 11.5 mph - N/A   Partly Cloudy
1:00 AM 78.8 °F - 73.4 °F 83% 29.95 in 6.2 mi East 12.7 mph - N/A   Partly Cloudy
2:00 AM 78 °F - 73 °F 80% 29.94 in 9 mi ENE 11.5 mph - -   Widespread Dust
2:00 AM 78.8 °F - 73.4 °F 83% 29.95 in 6.2 mi ENE 11.5 mph - N/A   Partly Cloudy
3:00 AM 78.8 °F - 73.4 °F 83% 29.92 in 6.2 mi East 12.7 mph - N/A   Partly Cloudy
4:00 AM 78.8 °F - 73.4 °F 83% 29.92 in 6.2 mi ESE 10.4 mph - N/A   Partly Cloudy
5:00 AM 78 °F - 72 °F 76% 29.94 in 9 mi East 11.5 mph - -   Widespread Dust
5:30 AM 78.8 °F - 71.6 °F 78% 29.92 in 6.2 mi East 11.5 mph - N/A   Partly Cloudy
6:00 AM 78.8 °F - 71.6 °F 78% 29.92 in 6.2 mi East 13.8 mph - N/A   Partly Cloudy
7:00 AM 78.8 °F - 71.6 °F 78% 29.95 in 6.2 mi East 9.2 mph - N/A   Partly Cloudy
8:00 AM 82 °F - 72 °F 66% 29.99 in 12 mi East 13.8 mph - -   Widespread Dust
8:00 AM 82.4 °F 87.2 °F 71.6 °F 70% 29.98 in 6.2 mi East 13.8 mph - N/A   Mostly Cloudy
9:00 AM 84.2 °F 92.3 °F 75.2 °F 74% 30.01 in 6.2 mi East 16.1 mph - N/A   Partly Cloudy
10:00 AM 86.0 °F 93.4 °F 73.4 °F 66% 30.01 in 6.2 mi East 18.4 mph - N/A   Scattered Clouds
11:00 AM 86 °F - 74 °F 59% 30.01 in 11 mi East 20.7 mph - -   Widespread Dust
11:00 AM 86.0 °F 93.4 °F 73.4 °F 66% 30.01 in 6.2 mi East 20.7 mph 32.2 mph N/A   Scattered Clouds
12:00 PM 84.2 °F 90.9 °F 73.4 °F 70% 29.98 in 6.2 mi East 20.7 mph - N/A   Mostly Cloudy
1:00 PM 86.0 °F 93.4 °F 73.4 °F 66% 29.95 in 6.2 mi East 17.3 mph - N/A   Scattered Clouds
2:00 PM 86 °F - 74 °F 59% 29.93 in 10 mi ESE 18.4 mph - -   Widespread Dust
2:00 PM 86.0 °F 93.4 °F 73.4 °F 66% 29.92 in 6.2 mi ESE 18.4 mph - N/A   Partly Cloudy
3:00 PM 86.0 °F 96.9 °F 77.0 °F 74% 29.92 in 6.2 mi ESE 17.3 mph - N/A   Partly Cloudy
4:00 PM 84.2 °F 92.3 °F 75.2 °F 74% 29.92 in 6.2 mi ESE 17.3 mph - N/A   Partly Cloudy
5:00 PM 82 °F - 74 °F 69% 29.94 in 11 mi ESE 17.3 mph - -   Widespread Dust
5:00 PM 82.4 °F 88.2 °F 73.4 °F 74% 29.92 in 6.2 mi ESE 17.3 mph - N/A   Partly Cloudy
6:00 PM 80.6 °F 85.4 °F 73.4 °F 79% 29.95 in 6.2 mi East 17.3 mph - N/A   Scattered Clouds
7:00 PM 80.6 °F 85.4 °F 73.4 °F 79% 29.95 in 6.2 mi East 13.8 mph - N/A   Scattered Clouds
8:00 PM 80 °F - 73 °F 75% 29.98 in 10 mi ESE 17.3 mph - - Rain Light Rain Showers
8:00 PM 80.6 °F 85.4 °F 73.4 °F 79% 29.98 in 6.2 mi ESE 17.3 mph - N/A Rain Light Rain Showers
9:00 PM 78.8 °F - 73.4 °F 83% 29.98 in 6.2 mi East 17.3 mph - N/A   Partly Cloudy
10:00 PM 80.6 °F 85.4 °F 73.4 °F 79% 29.98 in 6.2 mi East 9.2 mph - N/A   Partly Cloudy
11:00 PM 80 °F - 72 °F 71% 29.96 in 11 mi East 20.7 mph - -   Widespread Dust
11:00 PM 80.6 °F 85.4 °F 73.4 °F 79% 29.95 in 6.2 mi East 20.7 mph - N/A   Partly Cloudy